Tracking 20040 objects as of 19-Nov-2019
Live streaming from Space Station
objects crossing your sky now

TELSTAR 11 (ORION 1)

Track TELSTAR 11 (ORION 1) now!
TELSTAR 11 (ORION 1) is classified as:


NORAD ID: 23413
Int'l Code: 1994-079A
Perigee: 36,190.9 km
Apogee: 36,358.9 km
Inclination: 11.5 °
Period: 1,460.7 minutes
Semi major axis: 42645 km
RCS: 10.4526 m2 (large)
Launch date: November 29, 1994
Source: United States (US)
Launch site: AIR FORCE EASTERN TEST RANGE (AFETR)

34 Ku-band; Europe, United States to Rockies, parts of Canada and Mexico; broadcast, business, high-speed Internet.
aabbcc
Your satellite tracking list
Your tracking list is empty




NASA's NSSDC Master Catalog

Two Line Element Set (TLE):
1 23413U 94079A   19322.26541796  .00000020  00000-0  00000+0 0  9990
2 23413  11.4734  32.9529 0019705 314.3053  49.2456  0.98579565 90302
Source of the keplerian elements: AFSPC